Regional Weather Roundup
Issued by NWS Cleveland, OH

Home | Current Version | Previous Version | Graphics & Text | Print | Product List | Glossary On
Versions: 1 2 3 4 5 6 7 8 9 10 11 12 13 14 15 16 17 18 19 20 21 22 23 24 25 26 27 28 29 30 31 32 33 34 35 36 37 38 39 40 41 42 43 44 45 46 47 48 49 50
000
ASUS41 KCLE 282110
RWRCLE
OHIO REGIONAL WEATHER ROUNDUP
NATIONAL WEATHER SERVICE CLEVELAND, OH
500 PM EDT TUE JUL 28 2015

NOTE: "FAIR" INDICATES FEW OR NO CLOUDS BELOW 12,000 FEET WITH NO
SIGNIFICANT WEATHER AND/OR OBSTRUCTIONS TO VISIBILITY.

OHZ001>008-015>018-024>027-034-035-043-044-282200-
   NORTHWEST OHIO

CITY           SKY/WX    TMP DP  RH WIND       PRES   REMARKS
DEFIANCE       MOSUNNY   91  61  36 NE5       29.98F HX  91
FINDLAY        SUNNY     90  58  33 E8        29.97F
TOLEDO EXPRESS MOSUNNY   87  66  49 E6        29.97F
TOLEDO EXEC    MOSUNNY   88  62  41 E6        29.99F
LIMA           SUNNY     89  66  46 NE3       29.98F HX  91
$$

OHZ009>014-019>023-028>033-038-089-282200-
   NORTHEAST OHIO

CITY           SKY/WX    TMP DP  RH WIND       PRES   REMARKS
CLE-HOPKINS    PTSUNNY   87  67  51 N12       30.01F HX  90
CLE-LAKEFRONT  MOSUNNY   82  72  71 NE13      29.99F
CUY CO. ARPT   PTSUNNY   88  66  48 NE14      30.01F HX  90
LORAIN-ELYRIA  SUNNY     87  62  43 N9        30.00F
ASHTABULA      SUNNY     87  62  43 N7        30.03S
AKRON-CANTON   MOSUNNY   88  60  38 NE7       30.01F
WOOSTER        SUNNY     88  63  43 VRB5      30.01F
MANSFIELD      MOSUNNY   88  62  41 NE6       30.02F
YOUNGSTOWN     MOSUNNY   89  59  36 N8        30.02S
$$

OHZ042-051>053-060>062-070>072-077>081-282200-
  SOUTHWEST OHIO

CITY           SKY/WX    TMP DP  RH WIND       PRES   REMARKS
CINC-COVINGTON MOSUNNY   90  70  51 NW7       29.96F HX  95
CINC-LUNKEN    MOSUNNY   90  74  59 CALM      29.94F HX  99
HAMILTON       MOSUNNY   89  71  55 NW3       29.95F HX  95
DAYTON         MOSUNNY   87  72  60 NE7       29.99F HX  93
WRIGHT-PAT AFB MOSUNNY   88  72  58 E5        29.97F HX  94
DAYTON GENERAL MOSUNNY   87  71  58 E7        29.97F HX  93
WILMINGTON     PTSUNNY   85  71  63 NE3       29.97F HX  90
$$

OHZ036-037-039>041-045>050-054>059-063>069-073>076-082>088-282200-
  CENTRAL AND SOUTHEAST OHIO

CITY           SKY/WX    TMP DP  RH WIND       PRES   REMARKS
COLUMBUS       PTSUNNY   87  67  51 NE8       29.97S HX  90
OSU AIRPORT    PTSUNNY   87  68  52 N7        29.98S HX  90
BOLTON FIELD   HVY RAIN  75  70  83 NE15G30   30.00R VSB 1
RICKENBACK AFB SUNNY     88  71  56 SE5       29.96F HX  93
NEWARK         PTSUNNY   88  70  55 E7        29.98S HX  93
MARION         MOSUNNY   89  66  46 E9        29.99F HX  91
LANCASTER      CLOUDY    85  71  63 S5        29.98F HX  90
ZANESVILLE     MOSUNNY   89  67  47 NE8       29.98F HX  92
NEW PHILLY     SUNNY     88  69  53 NW3       29.99F HX  92
$$



USA.gov is the U.S. government's official web portal to all federal, state and local government web resources and services.